RYR623 EBCI-EDDS

Flight info

Callsign RYR623
Flight time N/A
Altitude 23000
Route RITAX M624 DIK M150 KRH T128 BADSO BADSO2A
Aircraft B738/M-SDE2E3FGHIRWXY/LB1

Departure

Time 2026-04-28 04:47
Airport Brussels South Charleroi Airport (EBCI)

Arrival

Time N/A
Airport Stuttgart Airport (EDDS)
Time Latitude Longitude Altitude Speed Heading
2026-04-28 04:28 50.46836 4.46987 612 ft 0 kts 335°
2026-04-28 04:39 50.46818 4.47002 618 ft 4 kts 322°
2026-04-28 04:39 50.46801 4.47032 622 ft 4 kts 288°
2026-04-28 04:39 50.46800 4.47063 620 ft 1 kts 245°
2026-04-28 04:42 50.46791 4.47032 618 ft 7 kts 245°
2026-04-28 04:42 50.46765 4.46945 620 ft 11 kts 245°
2026-04-28 04:42 50.46729 4.46820 624 ft 11 kts 245°
2026-04-28 04:42 50.46667 4.46782 615 ft 11 kts 160°
2026-04-28 04:43 50.46598 4.46763 613 ft 13 kts 236°
2026-04-28 04:43 50.46543 4.46581 614 ft 23 kts 245°
2026-04-28 04:43 50.46464 4.46307 617 ft 30 kts 245°
2026-04-28 04:43 50.46376 4.46006 620 ft 30 kts 245°
2026-04-28 04:44 50.46293 4.45720 618 ft 28 kts 245°
2026-04-28 04:44 50.46215 4.45451 621 ft 26 kts 245°
2026-04-28 04:44 50.46141 4.45199 616 ft 25 kts 246°
2026-04-28 04:44 50.46074 4.44962 621 ft 23 kts 246°
2026-04-28 04:45 50.46008 4.44737 612 ft 22 kts 245°
2026-04-28 04:45 50.45943 4.44518 620 ft 21 kts 244°
2026-04-28 04:45 50.45874 4.44355 623 ft 18 kts 232°
2026-04-28 04:45 50.45799 4.44206 612 ft 17 kts 232°
2026-04-28 04:46 50.45728 4.44062 612 ft 16 kts 232°
2026-04-28 04:46 50.45662 4.43982 616 ft 10 kts 182°
2026-04-28 04:46 50.45631 4.44056 618 ft 10 kts 73°
2026-04-28 04:46 50.45663 4.44168 620 ft 24 kts 66°
2026-04-28 04:47 50.45835 4.44764 626 ft 95 kts 65°
2026-04-28 04:47 50.46201 4.46018 621 ft 154 kts 63°
2026-04-28 04:47 50.46661 4.47649 1134 ft 170 kts 65°
2026-04-28 04:47 50.47169 4.49352 2068 ft 166 kts 55°
2026-04-28 04:48 50.48080 4.50484 2812 ft 182 kts 23°
2026-04-28 04:48 50.49377 4.51101 3170 ft 203 kts 21°
2026-04-28 04:48 50.50653 4.52262 3437 ft 221 kts 50°
2026-04-28 04:48 50.51394 4.54501 3755 ft 242 kts 69°
2026-04-28 04:49 50.52139 4.56921 3949 ft 245 kts 59°
2026-04-28 04:49 50.53084 4.59161 4103 ft 249 kts 56°
2026-04-28 04:49 50.54089 4.61380 4799 ft 255 kts 55°
2026-04-28 04:49 50.55150 4.63652 5706 ft 257 kts 54°
2026-04-28 04:50 50.56240 4.65939 6505 ft 264 kts 53°
2026-04-28 04:50 50.57359 4.68252 7354 ft 266 kts 53°
2026-04-28 04:50 50.58496 4.70586 8152 ft 272 kts 54°
2026-04-28 04:50 50.59670 4.72988 8818 ft 281 kts 53°
2026-04-28 04:51 50.60876 4.75446 9611 ft 286 kts 53°
2026-04-28 04:51 50.62110 4.77960 10338 ft 293 kts 53°
2026-04-28 04:51 50.63387 4.80563 10750 ft 312 kts 53°
2026-04-28 04:51 50.64740 4.83398 10944 ft 335 kts 58°
2026-04-28 04:52 50.65562 4.86892 11276 ft 348 kts 87°
2026-04-28 04:52 50.65215 4.90655 11930 ft 351 kts 113°
2026-04-28 04:52 50.63901 4.93879 12648 ft 353 kts 134°
2026-04-28 04:52 50.62155 4.96616 13392 ft 357 kts 137°
2026-04-28 04:53 50.60374 4.99379 14084 ft 362 kts 137°
2026-04-28 04:53 50.58569 5.02164 14736 ft 365 kts 137°
2026-04-28 04:53 50.56748 5.04980 15438 ft 367 kts 137°
2026-04-28 04:53 50.54923 5.07813 16126 ft 370 kts 137°
2026-04-28 04:54 50.53086 5.10673 16778 ft 374 kts 137°
2026-04-28 04:54 50.51231 5.13568 17399 ft 378 kts 137°
2026-04-28 04:54 50.49354 5.16499 18041 ft 382 kts 137°
2026-04-28 04:54 50.47457 5.19464 18622 ft 386 kts 137°
2026-04-28 04:55 50.45541 5.22455 19166 ft 390 kts 137°
2026-04-28 04:55 50.43613 5.25463 19733 ft 393 kts 138°
2026-04-28 04:55 50.41669 5.28493 20279 ft 396 kts 138°
2026-04-28 04:55 50.39702 5.31554 20812 ft 400 kts 138°
2026-04-28 04:56 50.37719 5.34636 21339 ft 403 kts 139°
2026-04-28 04:56 50.35720 5.37739 21866 ft 406 kts 139°
2026-04-28 04:56 50.33715 5.40849 22525 ft 405 kts 139°
2026-04-28 04:56 50.31737 5.43914 23103 ft 406 kts 139°
2026-04-28 04:57 50.29737 5.47010 23098 ft 404 kts 139°
2026-04-28 04:57 50.27742 5.50093 23138 ft 403 kts 139°
2026-04-28 04:57 50.25741 5.53181 23110 ft 405 kts 139°
2026-04-28 04:57 50.23728 5.56282 23141 ft 407 kts 139°
2026-04-28 04:58 50.21704 5.59395 23138 ft 409 kts 139°
2026-04-28 04:58 50.19671 5.62520 23141 ft 410 kts 139°
2026-04-28 04:58 50.17638 5.65643 23120 ft 410 kts 139°
2026-04-28 04:58 50.15603 5.68764 23122 ft 410 kts 139°
2026-04-28 04:59 50.13572 5.71877 23119 ft 409 kts 139°
2026-04-28 04:59 50.11545 5.74979 23121 ft 408 kts 139°
2026-04-28 04:59 50.09523 5.78069 23134 ft 407 kts 139°
2026-04-28 04:59 50.07503 5.81149 23115 ft 406 kts 139°
2026-04-28 05:00 50.05475 5.84204 23122 ft 405 kts 139°
2026-04-28 05:00 50.03446 5.87235 23132 ft 405 kts 140°
2026-04-28 05:00 50.01411 5.90270 23115 ft 405 kts 140°
2026-04-28 05:00 49.99379 5.93303 23099 ft 406 kts 140°
2026-04-28 05:01 49.97341 5.96343 23117 ft 406 kts 140°
2026-04-28 05:01 49.95299 5.99383 23127 ft 407 kts 140°
2026-04-28 05:01 49.93247 6.02428 23119 ft 409 kts 140°
2026-04-28 05:01 49.91217 6.05434 23114 ft 409 kts 140°
2026-04-28 05:02 49.89129 6.08521 23111 ft 410 kts 140°
2026-04-28 05:02 49.87080 6.11607 23119 ft 411 kts 136°
2026-04-28 05:02 49.85334 6.15063 23106 ft 416 kts 125°
2026-04-28 05:02 49.83966 6.19031 23111 ft 418 kts 119°
2026-04-28 05:03 49.82662 6.23056 23108 ft 418 kts 120°
2026-04-28 05:03 49.81948 6.25220 23100 ft 418 kts 120°